THOR ABLESTAR DEB, 1504

Orbit data source: Space-Track

THOR ABLESTAR DEB, 1504 is space debris in LEO originally from a launch on Fri, 13 Aug 1965 UTC launched from the Air Force Western Test Range (AFWTR). Debris objects in space refer to the collection of defunct objects orbiting the Earth. Examples of debris include non-operational satellites, rocket bodies, and fragments generated from explosions, collisions, or faulty payload assembly.

Loading next visibility...
Identifier
1504, 1965-065A
Orbit
LEO
Country
Flag of USUS
Related business
Manufacturer
NRL
Mission
Spacecraft
Bus & Motor
Unknown
Mass
Unknown
Launch date (UTC)
1965-08-13 (60 years ago)
Launch vehicle
Unknown
Launch site
Air Force Western Test Range (AFWTR)
Object type
Payload
Rocket body
Debris
Shape & HBR
Unknown shape, 0.1 m
Radar Cross Section
Small (<0.1 m²)

Expand to show TLE details & history
Last TLE update: 18 hours ago

TLE from 18 hours ago
0 THOR ABLESTAR DEB
1 01504U 65065A   25348.17992560  .00000267  00000-0  46596-3 0  9991
2 01504  89.9550 242.4143 0067481  24.5063 101.0930 13.40332547942926
Epoch: 2025-12-14T04:19Z
TLE epoch observation values (Epoch: 2025-12-14T04:19:05.571Z)
Latitude
53.7367°
Longitude
-85.51649°
Altitude
1,126.975 km
Speed
7.289 km/s
True Right ascension
04h 09m 24s
True Declination
53° 34' 50"
Sunlit
Object was in full shadow at epoch
Visualization orbit readout
Latitude
Unknown
Longitude
Unknown
Altitude
Unknown
Speed
Unknown
Apparent Right ascension
Unknown
Apparent Declination
Unknown
Sunlit
N/A
Visualization observer readout
Local Sidereal Time
20:40:38
Azimuth
Unknown
Elevation
Unknown
Doppler factor
Unknown
Orbital elements
Apogee altitude
1,155.602 km
Perigee altitude
1,054.607 km
Semi-major axis
7,483.241 km
Eccentricity
0.00675
Inclination
89.955°
RAAN
242.4143°
Arg. of periapsis
24.5063°
True anomaly
101.85058°
Mean anomaly
101.093°
Eccentric anomaly
101.47191°
Mean motion
3.35281 °/min
Orbital period
107.37 mins
BSTAR
0.00046596
Loading maneuver chart data...
Computing Atmospheric mass density...
Loading historical data...
Loading historical data...
Loading historical data...
Loading historical data...
Loading historical data...
Loading historical data...
Loading historical data...

Documentation

Showing up to 5 results
|